Precipitable_Water
0.84 0.77 0.73 0.71 0.67 0.60 0.56 0.54 0.52 0.53 0.53 0.51 0.49 0.48 0.48 0.48 0.47 0.48 0.47 0.45 0.44 0.43 0.39 0.39 0.40 0.40 0.40 0.39 0.38 0.35 0.33 0.27 0.24 0.22 0.20 0.21 0.27 0.31 0.29 0.29 0.29 0.31 0.29 0.23 0.22 0.17 0.13 0.14 0.16 0.20 0.19 0.18 0.16 0.15 0.19 0.19 0.21 0.17 0.11 0.09 0.06 0.08 0.08 0.11 0.10 0.12 0.15 0.13 0.16 0.18 0.21 0.20 0.18 0.23 0.26 0.28 0.25 0.25 0.25 0.24 0.24 0.25 0.23 0.24 0.26 0.29 0.30 0.30
0.75 0.70 0.65 0.58 0.54 0.53 0.52 0.52 0.53 0.53 0.51 0.50 0.50 0.49 0.48 0.48 0.47 0.47 0.46 0.44 0.42 0.40 0.38 0.38 0.39 0.40 0.42 0.41 0.39 0.37 0.30 0.27 0.21 0.19 0.18 0.24 0.25 0.25 0.28 0.27 0.28 0.28 0.27 0.19 0.18 0.17 0.13 0.12 0.12 0.12 0.13 0.12 0.17 0.13 0.18 0.14 0.21 0.14 0.12 0.11 0.07 0.10 0.11 0.15 0.15 0.16 0.15 0.15 0.17 0.19 0.22 0.21 0.19 0.21 0.23 0.18 0.18 0.19 0.18 0.18 0.18 0.18 0.20 0.23 0.26 0.28 0.29 0.30
0.66 0.63 0.54 0.51 0.51 0.50 0.51 0.54 0.54 0.51 0.49 0.49 0.49 0.48 0.49 0.47 0.46 0.46 0.44 0.42 0.40 0.38 0.37 0.37 0.37 0.39 0.42 0.40 0.39 0.38 0.30 0.22 0.17 0.14 0.17 0.24 0.25 0.25 0.27 0.27 0.26 0.26 0.21 0.17 0.20 0.19 0.15 0.15 0.13 0.11 0.11 0.10 0.15 0.12 0.15 0.13 0.17 0.17 0.12 0.09 0.09 0.13 0.14 0.16 0.17 0.16 0.18 0.18 0.17 0.18 0.19 0.18 0.17 0.17 0.20 0.14 0.13 0.14 0.12 0.12 0.14 0.16 0.17 0.20 0.24 0.26 0.28 0.29
0.66 0.62 0.57 0.50 0.49 0.50 0.53 0.54 0.53 0.50 0.49 0.49 0.49 0.49 0.48 0.46 0.45 0.43 0.41 0.40 0.38 0.38 0.38 0.39 0.39 0.39 0.40 0.41 0.42 0.34 0.26 0.19 0.12 0.15 0.18 0.23 0.23 0.25 0.25 0.25 0.24 0.23 0.23 0.21 0.23 0.20 0.20 0.18 0.16 0.13 0.12 0.11 0.13 0.15 0.12 0.17 0.13 0.16 0.13 0.09 0.11 0.14 0.12 0.13 0.16 0.17 0.17 0.18 0.15 0.14 0.15 0.12 0.14 0.16 0.16 0.15 0.12 0.12 0.13 0.16 0.16 0.16 0.19 0.22 0.24 0.26 0.27 0.27
0.61 0.63 0.62 0.59 0.53 0.51 0.51 0.50 0.49 0.50 0.50 0.49 0.48 0.46 0.45 0.44 0.42 0.40 0.40 0.39 0.38 0.40 0.41 0.39 0.38 0.38 0.39 0.36 0.36 0.31 0.23 0.09 0.11 0.16 0.19 0.21 0.22 0.24 0.23 0.24 0.24 0.22 0.22 0.21 0.21 0.20 0.18 0.16 0.16 0.15 0.12 0.10 0.13 0.13 0.13 0.17 0.18 0.15 0.11 0.13 0.13 0.13 0.10 0.14 0.15 0.16 0.15 0.15 0.13 0.12 0.10 0.10 0.18 0.18 0.17 0.17 0.13 0.11 0.15 0.18 0.21 0.22 0.23 0.24 0.24 0.26 0.27 0.27
0.55 0.54 0.53 0.53 0.52 0.52 0.50 0.49 0.49 0.49 0.49 0.47 0.45 0.44 0.43 0.42 0.41 0.40 0.39 0.39 0.38 0.38 0.40 0.39 0.39 0.35 0.30 0.28 0.26 0.23 0.19 0.06 0.13 0.13 0.22 0.21 0.22 0.23 0.23 0.23 0.24 0.23 0.21 0.19 0.17 0.18 0.15 0.15 0.14 0.12 0.11 0.11 0.12 0.10 0.14 0.17 0.19 0.10 0.12 0.12 0.13 0.14 0.11 0.13 0.14 0.14 0.13 0.12 0.11 0.12 0.14 0.18 0.17 0.17 0.20 0.20 0.16 0.16 0.21 0.23 0.24 0.25 0.25 0.26 0.27 0.27 0.26 0.27
0.55 0.55 0.55 0.51 0.50 0.50 0.49 0.49 0.49 0.49 0.48 0.45 0.44 0.42 0.41 0.40 0.39 0.38 0.38 0.38 0.37 0.36 0.39 0.39 0.36 0.36 0.32 0.27 0.20 0.16 0.11 0.11 0.15 0.16 0.19 0.21 0.22 0.21 0.23 0.21 0.22 0.21 0.19 0.17 0.17 0.15 0.16 0.14 0.14 0.12 0.12 0.12 0.13 0.13 0.15 0.15 0.17 0.13 0.09 0.13 0.13 0.14 0.12 0.14 0.12 0.13 0.13 0.14 0.14 0.17 0.20 0.16 0.18 0.15 0.21 0.19 0.17 0.20 0.24 0.26 0.26 0.26 0.27 0.27 0.26 0.27 0.27 0.27
0.55 0.56 0.54 0.51 0.50 0.50 0.49 0.49 0.48 0.47 0.45 0.43 0.41 0.40 0.39 0.39 0.38 0.38 0.37 0.37 0.36 0.34 0.34 0.35 0.32 0.34 0.32 0.23 0.15 0.10 0.09 0.09 0.14 0.19 0.19 0.21 0.20 0.20 0.21 0.19 0.19 0.18 0.17 0.15 0.15 0.14 0.15 0.13 0.11 0.15 0.11 0.09 0.12 0.12 0.15 0.13 0.15 0.11 0.10 0.13 0.13 0.13 0.13 0.13 0.13 0.13 0.16 0.17 0.20 0.20 0.17 0.17 0.19 0.18 0.20 0.16 0.17 0.21 0.24 0.27 0.27 0.26 0.26 0.26 0.26 0.27 0.27 0.27
0.56 0.55 0.53 0.52 0.52 0.50 0.49 0.48 0.47 0.46 0.44 0.41 0.40 0.39 0.39 0.37 0.35 0.35 0.36 0.36 0.35 0.30 0.28 0.33 0.31 0.32 0.31 0.20 0.13 0.07 0.08 0.14 0.17 0.18 0.19 0.19 0.18 0.19 0.19 0.15 0.17 0.14 0.13 0.14 0.14 0.13 0.12 0.11 0.13 0.14 0.08 0.10 0.15 0.11 0.13 0.11 0.08 0.14 0.12 0.14 0.13 0.12 0.13 0.13 0.13 0.15 0.16 0.18 0.20 0.18 0.16 0.19 0.20 0.23 0.18 0.16 0.18 0.23 0.25 0.26 0.26 0.26 0.25 0.25 0.26 0.27 0.27 0.27
0.55 0.53 0.53 0.53 0.52 0.51 0.49 0.49 0.48 0.45 0.43 0.41 0.41 0.39 0.38 0.36 0.35 0.33 0.34 0.35 0.32 0.26 0.24 0.26 0.29 0.26 0.22 0.15 0.10 0.06 0.11 0.18 0.18 0.18 0.18 0.19 0.17 0.17 0.17 0.17 0.18 0.17 0.14 0.14 0.15 0.12 0.10 0.11 0.12 0.15 0.14 0.12 0.15 0.11 0.14 0.11 0.09 0.16 0.14 0.15 0.14 0.15 0.15 0.15 0.13 0.15 0.17 0.18 0.20 0.16 0.14 0.16 0.21 0.19 0.13 0.17 0.20 0.23 0.23 0.23 0.24 0.24 0.23 0.24 0.25 0.27 0.28 0.28
0.54 0.53 0.54 0.54 0.54 0.53 0.51 0.50 0.48 0.44 0.42 0.41 0.40 0.38 0.37 0.34 0.33 0.32 0.31 0.31 0.30 0.28 0.24 0.20 0.22 0.20 0.11 0.11 0.07 0.06 0.15 0.16 0.18 0.18 0.17 0.18 0.15 0.13 0.15 0.18 0.19 0.17 0.17 0.16 0.15 0.16 0.16 0.15 0.16 0.15 0.12 0.09 0.12 0.11 0.13 0.13 0.18 0.16 0.15 0.14 0.14 0.16 0.16 0.16 0.16 0.16 0.18 0.16 0.18 0.17 0.14 0.17 0.19 0.19 0.13 0.15 0.21 0.22 0.21 0.21 0.22 0.23 0.23 0.24 0.26 0.27 0.29 0.29
0.52 0.54 0.55 0.54 0.55 0.53 0.52 0.49 0.45 0.42 0.41 0.39 0.38 0.36 0.35 0.34 0.32 0.29 0.28 0.29 0.29 0.31 0.28 0.21 0.19 0.16 0.12 0.09 0.08 0.09 0.17 0.16 0.18 0.17 0.17 0.17 0.14 0.15 0.19 0.20 0.19 0.18 0.17 0.14 0.15 0.18 0.19 0.18 0.17 0.14 0.09 0.15 0.09 0.12 0.14 0.19 0.16 0.15 0.15 0.10 0.12 0.13 0.12 0.15 0.14 0.15 0.16 0.13 0.16 0.17 0.13 0.13 0.15 0.13 0.14 0.19 0.21 0.21 0.21 0.21 0.22 0.23 0.24 0.26 0.27 0.28 0.28 0.29
0.53 0.54 0.55 0.56 0.56 0.53 0.49 0.45 0.43 0.41 0.40 0.38 0.36 0.34 0.32 0.31 0.30 0.28 0.28 0.26 0.30 0.26 0.21 0.21 0.21 0.18 0.12 0.07 0.10 0.15 0.17 0.19 0.17 0.17 0.17 0.18 0.18 0.19 0.20 0.21 0.20 0.20 0.19 0.16 0.16 0.19 0.20 0.20 0.18 0.13 0.15 0.13 0.12 0.10 0.15 0.18 0.14 0.15 0.14 0.11 0.10 0.10 0.09 0.13 0.14 0.13 0.11 0.12 0.16 0.17 0.08 0.08 0.13 0.15 0.16 0.20 0.20 0.21 0.21 0.21 0.22 0.24 0.25 0.26 0.27 0.28 0.28 0.29
0.55 0.55 0.57 0.58 0.54 0.50 0.46 0.44 0.41 0.40 0.39 0.37 0.32 0.31 0.28 0.28 0.28 0.27 0.26 0.27 0.29 0.24 0.22 0.19 0.16 0.12 0.09 0.08 0.12 0.16 0.18 0.19 0.18 0.15 0.15 0.18 0.16 0.17 0.19 0.21 0.21 0.21 0.22 0.18 0.19 0.21 0.20 0.22 0.17 0.14 0.19 0.13 0.11 0.24 0.14 0.14 0.13 0.10 0.11 0.12 0.09 0.07 0.08 0.11 0.11 0.12 0.11 0.17 0.17 0.17 0.09 0.09 0.12 0.15 0.17 0.20 0.21 0.20 0.19 0.21 0.22 0.24 0.25 0.26 0.27 0.27 0.27 0.29
0.56 0.57 0.57 0.55 0.51 0.46 0.44 0.42 0.40 0.39 0.36 0.33 0.30 0.29 0.28 0.26 0.27 0.25 0.24 0.27 0.28 0.23 0.26 0.24 0.19 0.17 0.08 0.09 0.15 0.16 0.20 0.19 0.14 0.15 0.18 0.16 0.15 0.14 0.14 0.19 0.19 0.19 0.19 0.18 0.17 0.19 0.18 0.16 0.14 0.11 0.10 0.15 0.17 0.12 0.10 0.09 0.11 0.11 0.07 0.07 0.09 0.08 0.08 0.10 0.14 0.14 0.11 0.14 0.18 0.16 0.10 0.10 0.12 0.15 0.17 0.20 0.20 0.20 0.19 0.21 0.22 0.23 0.24 0.25 0.26 0.27 0.27 0.27
0.56 0.57 0.57 0.51 0.46 0.44 0.42 0.40 0.39 0.35 0.34 0.31 0.28 0.27 0.28 0.27 0.26 0.26 0.24 0.23 0.23 0.27 0.25 0.15 0.14 0.12 0.09 0.08 0.12 0.19 0.16 0.11 0.12 0.17 0.19 0.20 0.18 0.15 0.17 0.17 0.19 0.18 0.18 0.17 0.19 0.17 0.16 0.14 0.11 0.12 0.12 0.12 0.10 0.09 0.08 0.08 0.09 0.09 0.08 0.07 0.07 0.08 0.09 0.09 0.13 0.14 0.15 0.15 0.18 0.15 0.10 0.11 0.12 0.16 0.18 0.20 0.20 0.20 0.20 0.21 0.22 0.23 0.24 0.25 0.25 0.26 0.27 0.27
0.56 0.56 0.50 0.46 0.44 0.41 0.38 0.36 0.34 0.34 0.32 0.29 0.27 0.25 0.25 0.27 0.29 0.26 0.24 0.23 0.19 0.18 0.15 0.13 0.15 0.12 0.07 0.14 0.20 0.12 0.12 0.14 0.17 0.16 0.18 0.21 0.21 0.19 0.16 0.14 0.13 0.13 0.17 0.18 0.17 0.16 0.13 0.12 0.13 0.12 0.15 0.11 0.12 0.09 0.08 0.07 0.07 0.08 0.10 0.08 0.09 0.08 0.09 0.08 0.11 0.14 0.15 0.14 0.12 0.15 0.13 0.12 0.13 0.16 0.17 0.19 0.20 0.20 0.19 0.20 0.21 0.22 0.24 0.25 0.26 0.26 0.26 0.26
0.54 0.50 0.47 0.44 0.42 0.37 0.35 0.33 0.32 0.30 0.27 0.27 0.28 0.23 0.20 0.20 0.20 0.20 0.18 0.21 0.21 0.15 0.15 0.17 0.17 0.14 0.10 0.14 0.10 0.11 0.16 0.14 0.15 0.16 0.18 0.21 0.23 0.20 0.16 0.12 0.12 0.13 0.16 0.14 0.15 0.12 0.13 0.10 0.12 0.09 0.11 0.12 0.12 0.10 0.08 0.06 0.07 0.08 0.08 0.08 0.09 0.10 0.11 0.10 0.10 0.11 0.14 0.14 0.13 0.13 0.13 0.12 0.13 0.16 0.16 0.17 0.19 0.19 0.19 0.19 0.21 0.22 0.23 0.25 0.26 0.26 0.25 0.25
0.49 0.46 0.44 0.41 0.36 0.34 0.33 0.32 0.31 0.27 0.26 0.28 0.27 0.27 0.25 0.24 0.17 0.16 0.14 0.14 0.12 0.09 0.07 0.09 0.10 0.06 0.06 0.11 0.15 0.15 0.16 0.17 0.18 0.17 0.15 0.18 0.21 0.20 0.19 0.17 0.15 0.12 0.11 0.11 0.11 0.12 0.12 0.11 0.12 0.10 0.09 0.10 0.11 0.11 0.10 0.10 0.11 0.10 0.10 0.10 0.11 0.09 0.09 0.10 0.11 0.13 0.14 0.12 0.12 0.12 0.11 0.11 0.13 0.14 0.16 0.17 0.19 0.19 0.19 0.20 0.21 0.22 0.23 0.25 0.25 0.25 0.24 0.24
0.46 0.44 0.40 0.36 0.34 0.34 0.34 0.31 0.29 0.28 0.29 0.24 0.23 0.22 0.20 0.13 0.11 0.10 0.14 0.14 0.12 0.12 0.12 0.13 0.14 0.14 0.14 0.15 0.14 0.18 0.20 0.18 0.14 0.15 0.17 0.20 0.20 0.17 0.15 0.17 0.14 0.15 0.12 0.10 0.11 0.13 0.14 0.10 0.09 0.09 0.10 0.12 0.13 0.14 0.14 0.14 0.13 0.13 0.13 0.12 0.10 0.10 0.10 0.12 0.12 0.13 0.15 0.12 0.11 0.12 0.12 0.12 0.13 0.14 0.16 0.18 0.19 0.19 0.20 0.20 0.21 0.22 0.23 0.24 0.25 0.24 0.23 0.23
0.45 0.40 0.35 0.33 0.34 0.34 0.33 0.32 0.32 0.32 0.31 0.28 0.27 0.26 0.13 0.12 0.09 0.07 0.11 0.14 0.16 0.16 0.14 0.14 0.14 0.13 0.13 0.17 0.18 0.17 0.12 0.13 0.15 0.15 0.17 0.24 0.21 0.17 0.13 0.15 0.13 0.11 0.13 0.13 0.12 0.15 0.13 0.10 0.10 0.12 0.13 0.14 0.14 0.15 0.15 0.14 0.14 0.12 0.11 0.11 0.10 0.11 0.09 0.11 0.11 0.13 0.14 0.12 0.11 0.13 0.12 0.12 0.14 0.15 0.17 0.18 0.19 0.18 0.19 0.20 0.21 0.22 0.23 0.24 0.24 0.24 0.23 0.23
0.40 0.34 0.32 0.33 0.34 0.33 0.32 0.30 0.29 0.28 0.29 0.26 0.20 0.12 0.14 0.15 0.19 0.18 0.14 0.09 0.14 0.17 0.16 0.15 0.17 0.14 0.17 0.17 0.20 0.21 0.17 0.12 0.13 0.15 0.19 0.21 0.18 0.13 0.14 0.14 0.12 0.11 0.14 0.14 0.14 0.12 0.10 0.10 0.12 0.14 0.16 0.17 0.16 0.16 0.15 0.13 0.12 0.13 0.11 0.11 0.10 0.10 0.11 0.12 0.12 0.14 0.15 0.13 0.11 0.13 0.12 0.12 0.13 0.15 0.18 0.18 0.18 0.19 0.21 0.22 0.22 0.22 0.23 0.23 0.24 0.23 0.22 0.22
0.34 0.33 0.33 0.34 0.34 0.33 0.31 0.31 0.28 0.27 0.23 0.18 0.16 0.16 0.16 0.26 0.34 0.30 0.18 0.12 0.10 0.16 0.15 0.14 0.13 0.14 0.14 0.18 0.19 0.22 0.13 0.12 0.12 0.15 0.17 0.20 0.16 0.17 0.16 0.13 0.13 0.13 0.14 0.15 0.11 0.11 0.09 0.11 0.14 0.17 0.17 0.15 0.15 0.15 0.14 0.13 0.13 0.12 0.11 0.11 0.10 0.12 0.11 0.09 0.11 0.13 0.14 0.14 0.12 0.13 0.12 0.12 0.14 0.17 0.17 0.18 0.19 0.19 0.21 0.22 0.23 0.23 0.23 0.23 0.22 0.22 0.21 0.21
0.33 0.34 0.34 0.33 0.33 0.33 0.33 0.29 0.30 0.25 0.23 0.23 0.21 0.20 0.29 0.35 0.33 0.26 0.13 0.09 0.09 0.11 0.16 0.15 0.16 0.15 0.15 0.14 0.18 0.19 0.14 0.14 0.15 0.14 0.21 0.20 0.16 0.19 0.16 0.15 0.13 0.13 0.12 0.14 0.14 0.12 0.11 0.13 0.18 0.17 0.17 0.15 0.13 0.13 0.12 0.12 0.11 0.13 0.12 0.12 0.11 0.11 0.12 0.12 0.11 0.13 0.14 0.15 0.16 0.14 0.11 0.10 0.13 0.13 0.14 0.18 0.20 0.20 0.21 0.21 0.22 0.23 0.23 0.22 0.22 0.21 0.21 0.20
0.34 0.34 0.34 0.33 0.32 0.32 0.31 0.31 0.22 0.24 0.29 0.25 0.24 0.32 0.36 0.37 0.35 0.31 0.19 0.10 0.09 0.10 0.19 0.15 0.18 0.16 0.18 0.23 0.21 0.16 0.17 0.16 0.17 0.19 0.21 0.20 0.18 0.17 0.15 0.19 0.15 0.12 0.13 0.15 0.15 0.13 0.12 0.16 0.18 0.15 0.14 0.14 0.14 0.12 0.13 0.13 0.11 0.12 0.13 0.13 0.13 0.13 0.12 0.13 0.13 0.13 0.11 0.10 0.14 0.13 0.09 0.08 0.12 0.13 0.14 0.17 0.17 0.18 0.19 0.19 0.19 0.20 0.20 0.20 0.20 0.20 0.20 0.21
0.34 0.33 0.33 0.31 0.31 0.30 0.35 0.22 0.22 0.28 0.24 0.21 0.26 0.34 0.38 0.38 0.38 0.36 0.21 0.08 0.06 0.09 0.14 0.09 0.19 0.12 0.24 0.15 0.18 0.17 0.18 0.12 0.18 0.20 0.23 0.21 0.27 0.18 0.20 0.14 0.17 0.12 0.14 0.15 0.14 0.13 0.13 0.17 0.16 0.14 0.14 0.14 0.14 0.13 0.14 0.14 0.12 0.11 0.11 0.15 0.15 0.14 0.13 0.13 0.12 0.12 0.09 0.09 0.12 0.15 0.10 0.08 0.11 0.12 0.14 0.16 0.16 0.16 0.18 0.18 0.18 0.18 0.19 0.19 0.19 0.19 0.20 0.21
0.32 0.32 0.32 0.31 0.31 0.30 0.21 0.16 0.28 0.30 0.16 0.21 0.33 0.37 0.34 0.38 0.40 0.30 0.19 0.08 0.05 0.10 0.09 0.13 0.14 0.14 0.22 0.17 0.17 0.20 0.09 0.11 0.19 0.20 0.20 0.23 0.19 0.23 0.14 0.13 0.16 0.18 0.18 0.17 0.13 0.11 0.15 0.14 0.15 0.15 0.14 0.13 0.13 0.12 0.14 0.15 0.12 0.11 0.15 0.15 0.15 0.13 0.13 0.13 0.13 0.12 0.11 0.13 0.14 0.14 0.13 0.10 0.09 0.11 0.16 0.17 0.16 0.16 0.16 0.16 0.17 0.17 0.18 0.18 0.18 0.19 0.20 0.22
0.29 0.30 0.32 0.32 0.31 0.29 0.22 0.24 0.21 0.16 0.18 0.28 0.37 0.36 0.34 0.34 0.38 0.27 0.11 0.04 0.04 0.14 0.09 0.12 0.14 0.23 0.18 0.18 0.18 0.14 0.13 0.17 0.13 0.16 0.22 0.23 0.23 0.19 0.16 0.14 0.14 0.14 0.16 0.14 0.09 0.13 0.15 0.14 0.14 0.14 0.14 0.13 0.13 0.15 0.15 0.16 0.14 0.13 0.16 0.16 0.14 0.14 0.14 0.13 0.13 0.12 0.12 0.11 0.09 0.11 0.15 0.10 0.09 0.12 0.17 0.18 0.15 0.15 0.15 0.15 0.16 0.16 0.17 0.17 0.19 0.21 0.22 0.24
0.28 0.29 0.32 0.33 0.31 0.30 0.30 0.23 0.19 0.17 0.29 0.37 0.36 0.36 0.35 0.32 0.24 0.18 0.09 0.04 0.08 0.10 0.19 0.11 0.21 0.18 0.17 0.18 0.15 0.17 0.15 0.17 0.13 0.17 0.22 0.23 0.23 0.20 0.14 0.16 0.16 0.17 0.17 0.15 0.11 0.13 0.16 0.16 0.16 0.16 0.15 0.13 0.16 0.17 0.17 0.16 0.13 0.15 0.17 0.16 0.16 0.15 0.14 0.13 0.12 0.11 0.11 0.10 0.08 0.10 0.13 0.10 0.09 0.12 0.13 0.15 0.15 0.14 0.15 0.15 0.16 0.16 0.16 0.18 0.20 0.22 0.23 0.24
0.30 0.29 0.30 0.32 0.28 0.27 0.24 0.26 0.22 0.29 0.35 0.37 0.36 0.37 0.32 0.28 0.21 0.08 0.05 0.04 0.11 0.07 0.14 0.14 0.14 0.13 0.16 0.13 0.13 0.15 0.14 0.15 0.18 0.19 0.20 0.18 0.19 0.23 0.21 0.22 0.16 0.16 0.15 0.16 0.15 0.15 0.16 0.22 0.23 0.18 0.15 0.17 0.17 0.17 0.18 0.17 0.17 0.18 0.16 0.14 0.13 0.13 0.12 0.13 0.12 0.11 0.10 0.08 0.10 0.12 0.13 0.13 0.10 0.12 0.13 0.13 0.14 0.16 0.16 0.15 0.16 0.17 0.18 0.20 0.22 0.22 0.23 0.23
0.30 0.29 0.28 0.28 0.20 0.25 0.22 0.17 0.21 0.31 0.35 0.37 0.37 0.34 0.23 0.12 0.07 0.06 0.05 0.07 0.13 0.10 0.15 0.13 0.12 0.18 0.13 0.12 0.11 0.14 0.15 0.15 0.15 0.17 0.16 0.19 0.17 0.18 0.18 0.18 0.19 0.15 0.14 0.14 0.14 0.15 0.16 0.19 0.16 0.18 0.23 0.19 0.19 0.16 0.19 0.19 0.19 0.17 0.14 0.13 0.11 0.10 0.11 0.11 0.10 0.11 0.09 0.08 0.11 0.13 0.13 0.13 0.09 0.10 0.14 0.16 0.19 0.19 0.17 0.16 0.17 0.18 0.19 0.21 0.22 0.22 0.22 0.22
0.31 0.29 0.28 0.25 0.27 0.29 0.15 0.15 0.26 0.31 0.33 0.37 0.29 0.21 0.17 0.07 0.07 0.05 0.05 0.12 0.06 0.09 0.11 0.11 0.15 0.14 0.13 0.15 0.12 0.13 0.13 0.14 0.15 0.16 0.14 0.15 0.14 0.14 0.15 0.12 0.13 0.09 0.09 0.10 0.10 0.14 0.13 0.14 0.16 0.18 0.23 0.18 0.17 0.15 0.16 0.17 0.17 0.16 0.14 0.13 0.10 0.09 0.09 0.07 0.09 0.08 0.08 0.08 0.12 0.13 0.14 0.11 0.11 0.13 0.15 0.15 0.16 0.18 0.18 0.19 0.19 0.20 0.21 0.21 0.21 0.21 0.21 0.20
0.31 0.30 0.28 0.26 0.27 0.23 0.25 0.30 0.34 0.31 0.33 0.31 0.22 0.18 0.08 0.07 0.04 0.07 0.07 0.09 0.07 0.13 0.10 0.17 0.13 0.13 0.13 0.13 0.11 0.13 0.17 0.12 0.15 0.15 0.17 0.17 0.15 0.16 0.18 0.16 0.16 0.13 0.09 0.12 0.11 0.11 0.12 0.15 0.15 0.16 0.18 0.19 0.18 0.13 0.12 0.12 0.15 0.14 0.13 0.13 0.11 0.09 0.09 0.07 0.08 0.09 0.09 0.10 0.13 0.13 0.14 0.11 0.12 0.14 0.16 0.16 0.17 0.19 0.19 0.20 0.21 0.21 0.21 0.21 0.20 0.20 0.19 0.17
0.27 0.26 0.24 0.28 0.27 0.27 0.28 0.30 0.30 0.32 0.27 0.23 0.17 0.09 0.07 0.05 0.05 0.14 0.09 0.10 0.09 0.15 0.15 0.13 0.14 0.13 0.12 0.11 0.12 0.14 0.11 0.15 0.14 0.15 0.16 0.14 0.16 0.13 0.16 0.18 0.18 0.15 0.14 0.13 0.11 0.11 0.09 0.10 0.13 0.15 0.13 0.19 0.18 0.17 0.16 0.15 0.16 0.15 0.17 0.15 0.13 0.12 0.10 0.08 0.09 0.08 0.09 0.10 0.11 0.14 0.11 0.10 0.10 0.12 0.16 0.17 0.18 0.20 0.21 0.22 0.23 0.22 0.21 0.20 0.19 0.17 0.15 0.14
0.29 0.23 0.24 0.25 0.26 0.29 0.29 0.30 0.30 0.30 0.23 0.18 0.11 0.08 0.06 0.06 0.08 0.08 0.08 0.10 0.12 0.14 0.12 0.16 0.12 0.12 0.11 0.12 0.13 0.15 0.14 0.12 0.15 0.15 0.14 0.14 0.13 0.15 0.14 0.15 0.18 0.17 0.16 0.12 0.13 0.13 0.12 0.12 0.15 0.19 0.18 0.20 0.17 0.19 0.20 0.18 0.16 0.17 0.17 0.17 0.13 0.12 0.15 0.10 0.11 0.11 0.10 0.10 0.10 0.11 0.11 0.13 0.12 0.17 0.17 0.18 0.20 0.20 0.22 0.22 0.21 0.19 0.18 0.16 0.15 0.13 0.13 0.12
0.27 0.19 0.19 0.17 0.19 0.24 0.33 0.32 0.28 0.26 0.20 0.13 0.08 0.07 0.06 0.07 0.07 0.10 0.10 0.17 0.14 0.11 0.12 0.14 0.12 0.11 0.11 0.11 0.13 0.13 0.16 0.13 0.14 0.14 0.14 0.15 0.17 0.15 0.18 0.18 0.17 0.18 0.15 0.12 0.14 0.11 0.13 0.11 0.17 0.18 0.20 0.19 0.19 0.20 0.19 0.20 0.12 0.15 0.16 0.13 0.15 0.18 0.16 0.12 0.11 0.12 0.12 0.10 0.09 0.13 0.12 0.13 0.17 0.16 0.17 0.18 0.19 0.20 0.21 0.20 0.18 0.16 0.15 0.14 0.13 0.12 0.11 0.10
0.18 0.19 0.12 0.16 0.17 0.26 0.32 0.33 0.29 0.24 0.20 0.11 0.08 0.07 0.10 0.11 0.13 0.12 0.15 0.12 0.14 0.16 0.12 0.09 0.10 0.11 0.10 0.10 0.11 0.12 0.13 0.16 0.14 0.14 0.12 0.16 0.15 0.18 0.17 0.19 0.21 0.20 0.20 0.18 0.14 0.17 0.12 0.12 0.17 0.17 0.16 0.19 0.22 0.20 0.21 0.21 0.19 0.17 0.13 0.15 0.19 0.20 0.18 0.14 0.10 0.11 0.10 0.08 0.08 0.12 0.10 0.11 0.12 0.09 0.17 0.17 0.18 0.18 0.18 0.17 0.16 0.15 0.14 0.12 0.11 0.10 0.09 0.09
0.17 0.16 0.15 0.15 0.19 0.27 0.31 0.29 0.29 0.22 0.14 0.10 0.08 0.09 0.13 0.10 0.16 0.15 0.18 0.17 0.16 0.15 0.11 0.10 0.11 0.13 0.10 0.10 0.11 0.12 0.14 0.13 0.13 0.14 0.12 0.14 0.13 0.21 0.18 0.17 0.22 0.20 0.21 0.23 0.16 0.16 0.19 0.11 0.15 0.17 0.18 0.19 0.21 0.20 0.19 0.20 0.21 0.17 0.16 0.22 0.15 0.12 0.11 0.14 0.13 0.09 0.09 0.08 0.08 0.09 0.11 0.11 0.12 0.11 0.14 0.15 0.16 0.16 0.16 0.15 0.14 0.13 0.12 0.10 0.09 0.09 0.09 0.09
0.19 0.16 0.11 0.15 0.23 0.25 0.26 0.28 0.21 0.15 0.11 0.09 0.09 0.09 0.12 0.13 0.17 0.15 0.19 0.18 0.17 0.13 0.11 0.12 0.10 0.12 0.12 0.11 0.12 0.14 0.14 0.11 0.14 0.13 0.12 0.14 0.13 0.19 0.18 0.20 0.18 0.22 0.23 0.23 0.18 0.19 0.20 0.13 0.13 0.18 0.18 0.19 0.19 0.18 0.13 0.16 0.19 0.21 0.21 0.18 0.20 0.17 0.14 0.13 0.13 0.13 0.12 0.09 0.09 0.08 0.10 0.09 0.12 0.13 0.16 0.16 0.16 0.16 0.15 0.14 0.13 0.11 0.10 0.09 0.08 0.09 0.08 0.08
0.18 0.13 0.10 0.18 0.23 0.27 0.24 0.20 0.15 0.13 0.10 0.08 0.10 0.10 0.14 0.12 0.15 0.20 0.20 0.21 0.14 0.12 0.12 0.12 0.13 0.11 0.13 0.12 0.14 0.12 0.14 0.15 0.14 0.14 0.14 0.15 0.14 0.21 0.18 0.23 0.19 0.20 0.23 0.25 0.20 0.23 0.17 0.18 0.11 0.15 0.19 0.19 0.14 0.16 0.15 0.16 0.15 0.16 0.16 0.15 0.16 0.16 0.18 0.16 0.15 0.13 0.12 0.10 0.10 0.09 0.08 0.09 0.13 0.16 0.17 0.16 0.16 0.15 0.14 0.13 0.11 0.10 0.09 0.08 0.08 0.08 0.06 0.09
0.19 0.12 0.12 0.20 0.22 0.26 0.23 0.15 0.12 0.10 0.10 0.13 0.14 0.12 0.14 0.12 0.15 0.17 0.21 0.22 0.19 0.21 0.14 0.13 0.13 0.12 0.13 0.13 0.13 0.15 0.14 0.15 0.15 0.14 0.15 0.15 0.15 0.13 0.20 0.21 0.22 0.20 0.23 0.22 0.20 0.20 0.17 0.17 0.13 0.15 0.15 0.14 0.15 0.19 0.18 0.18 0.18 0.17 0.17 0.16 0.16 0.14 0.13 0.11 0.10 0.14 0.14 0.12 0.10 0.09 0.08 0.11 0.14 0.18 0.17 0.16 0.16 0.15 0.14 0.12 0.10 0.09 0.08 0.08 0.08 0.06 0.07 0.10
0.16 0.10 0.11 0.19 0.21 0.23 0.15 0.10 0.12 0.15 0.12 0.10 0.10 0.13 0.12 0.19 0.15 0.16 0.19 0.21 0.19 0.16 0.20 0.17 0.17 0.15 0.14 0.14 0.14 0.15 0.15 0.14 0.15 0.15 0.16 0.14 0.17 0.17 0.20 0.25 0.24 0.24 0.20 0.17 0.18 0.22 0.21 0.19 0.16 0.14 0.15 0.15 0.17 0.19 0.21 0.21 0.20 0.19 0.19 0.17 0.18 0.17 0.16 0.13 0.10 0.11 0.13 0.13 0.13 0.12 0.10 0.10 0.17 0.18 0.17 0.16 0.16 0.14 0.12 0.11 0.10 0.09 0.09 0.08 0.07 0.06 0.10 0.11
0.12 0.10 0.16 0.19 0.21 0.17 0.12 0.10 0.13 0.12 0.12 0.15 0.19 0.17 0.18 0.15 0.14 0.17 0.15 0.18 0.15 0.19 0.17 0.16 0.16 0.15 0.16 0.15 0.15 0.16 0.17 0.14 0.15 0.15 0.16 0.17 0.17 0.20 0.23 0.24 0.25 0.23 0.23 0.19 0.22 0.22 0.24 0.16 0.14 0.14 0.17 0.18 0.19 0.20 0.21 0.21 0.20 0.19 0.19 0.19 0.18 0.16 0.16 0.15 0.14 0.14 0.12 0.13 0.11 0.11 0.09 0.10 0.15 0.17 0.17 0.16 0.15 0.13 0.12 0.11 0.09 0.08 0.08 0.08 0.06 0.07 0.10 0.10
0.13 0.12 0.13 0.18 0.21 0.18 0.11 0.07 0.08 0.10 0.12 0.15 0.15 0.15 0.19 0.16 0.15 0.14 0.14 0.16 0.15 0.15 0.14 0.15 0.16 0.17 0.15 0.19 0.18 0.15 0.18 0.13 0.16 0.16 0.16 0.18 0.17 0.25 0.24 0.24 0.27 0.22 0.20 0.19 0.18 0.23 0.17 0.17 0.16 0.12 0.12 0.13 0.14 0.16 0.17 0.19 0.20 0.18 0.17 0.19 0.18 0.18 0.17 0.17 0.16 0.16 0.13 0.13 0.12 0.11 0.07 0.09 0.13 0.16 0.16 0.15 0.13 0.12 0.11 0.10 0.09 0.08 0.08 0.07 0.06 0.08 0.10 0.09
0.12 0.14 0.13 0.14 0.18 0.14 0.10 0.10 0.09 0.10 0.11 0.11 0.12 0.11 0.12 0.14 0.17 0.17 0.15 0.15 0.19 0.17 0.16 0.15 0.17 0.18 0.17 0.19 0.17 0.19 0.20 0.16 0.15 0.18 0.18 0.18 0.18 0.26 0.23 0.25 0.26 0.23 0.25 0.26 0.25 0.27 0.19 0.18 0.16 0.13 0.11 0.11 0.10 0.11 0.12 0.14 0.16 0.18 0.19 0.18 0.18 0.17 0.16 0.15 0.13 0.14 0.11 0.13 0.13 0.11 0.10 0.12 0.14 0.15 0.14 0.12 0.12 0.12 0.10 0.09 0.09 0.09 0.08 0.07 0.06 0.08 0.08 0.07
0.11 0.07 0.09 0.10 0.12 0.13 0.13 0.16 0.12 0.10 0.10 0.10 0.10 0.11 0.13 0.12 0.15 0.19 0.19 0.18 0.20 0.19 0.19 0.18 0.19 0.20 0.17 0.17 0.16 0.16 0.16 0.19 0.17 0.16 0.17 0.17 0.19 0.21 0.23 0.26 0.25 0.25 0.26 0.27 0.25 0.24 0.19 0.20 0.19 0.17 0.16 0.14 0.15 0.17 0.19 0.19 0.18 0.16 0.17 0.17 0.17 0.17 0.17 0.16 0.16 0.14 0.12 0.13 0.12 0.13 0.13 0.12 0.12 0.12 0.12 0.12 0.12 0.10 0.09 0.08 0.08 0.08 0.08 0.07 0.06 0.07 0.07 0.06
0.11 0.08 0.08 0.07 0.09 0.10 0.10 0.12 0.10 0.10 0.09 0.11 0.09 0.11 0.11 0.12 0.14 0.15 0.23 0.15 0.20 0.19 0.19 0.19 0.17 0.16 0.16 0.16 0.15 0.16 0.17 0.17 0.19 0.18 0.17 0.17 0.19 0.20 0.24 0.26 0.27 0.26 0.27 0.25 0.26 0.22 0.19 0.18 0.19 0.19 0.18 0.18 0.19 0.18 0.19 0.20 0.18 0.18 0.17 0.16 0.17 0.17 0.17 0.16 0.15 0.13 0.16 0.13 0.09 0.12 0.13 0.12 0.11 0.12 0.12 0.11 0.11 0.10 0.08 0.08 0.09 0.08 0.07 0.06 0.06 0.06 0.06 0.05
0.09 0.11 0.12 0.13 0.08 0.06 0.07 0.08 0.11 0.10 0.11 0.11 0.10 0.12 0.11 0.12 0.13 0.12 0.17 0.19 0.20 0.22 0.17 0.18 0.17 0.18 0.18 0.16 0.17 0.14 0.16 0.16 0.17 0.15 0.18 0.18 0.18 0.20 0.20 0.25 0.25 0.26 0.26 0.23 0.25 0.21 0.18 0.16 0.19 0.19 0.19 0.20 0.20 0.19 0.20 0.19 0.19 0.18 0.18 0.17 0.16 0.17 0.17 0.15 0.16 0.16 0.16 0.13 0.11 0.13 0.14 0.12 0.12 0.12 0.12 0.12 0.11 0.09 0.08 0.08 0.08 0.08 0.07 0.06 0.06 0.05 0.05 0.05
0.13 0.13 0.12 0.14 0.08 0.10 0.11 0.11 0.12 0.11 0.10 0.11 0.11 0.11 0.10 0.11 0.11 0.14 0.15 0.17 0.18 0.18 0.18 0.14 0.16 0.17 0.18 0.19 0.17 0.15 0.16 0.14 0.14 0.17 0.17 0.17 0.18 0.18 0.17 0.20 0.24 0.25 0.25 0.23 0.23 0.22 0.19 0.17 0.19 0.20 0.19 0.19 0.19 0.19 0.19 0.19 0.19 0.18 0.17 0.17 0.17 0.17 0.17 0.17 0.16 0.17 0.17 0.15 0.16 0.15 0.14 0.13 0.13 0.13 0.13 0.12 0.11 0.09 0.08 0.08 0.08 0.07 0.06 0.06 0.05 0.05 0.05 0.05
0.09 0.07 0.08 0.13 0.12 0.11 0.12 0.12 0.11 0.10 0.09 0.11 0.08 0.10 0.11 0.11 0.11 0.14 0.17 0.17 0.15 0.16 0.20 0.16 0.17 0.18 0.19 0.19 0.19 0.16 0.17 0.18 0.17 0.16 0.18 0.18 0.18 0.19 0.18 0.19 0.19 0.23 0.24 0.21 0.22 0.23 0.19 0.17 0.20 0.19 0.18 0.18 0.19 0.19 0.19 0.19 0.18 0.17 0.17 0.17 0.17 0.17 0.17 0.17 0.17 0.17 0.17 0.16 0.16 0.15 0.13 0.12 0.13 0.15 0.13 0.12 0.10 0.08 0.08 0.08 0.07 0.07 0.06 0.05 0.05 0.05 0.05 0.04
0.12 0.14 0.11 0.08 0.07 0.10 0.11 0.10 0.09 0.09 0.08 0.09 0.08 0.10 0.11 0.11 0.11 0.14 0.15 0.20 0.17 0.16 0.18 0.17 0.18 0.19 0.21 0.20 0.19 0.18 0.21 0.20 0.20 0.19 0.20 0.20 0.17 0.20 0.19 0.19 0.23 0.20 0.21 0.21 0.22 0.21 0.20 0.18 0.20 0.18 0.16 0.16 0.18 0.18 0.18 0.19 0.18 0.17 0.16 0.17 0.17 0.17 0.16 0.16 0.16 0.18 0.16 0.14 0.15 0.14 0.12 0.11 0.14 0.15 0.12 0.10 0.09 0.08 0.07 0.08 0.07 0.06 0.05 0.05 0.05 0.05 0.05 0.05
0.14 0.14 0.13 0.09 0.07 0.10 0.08 0.10 0.10 0.08 0.07 0.09 0.09 0.11 0.11 0.11 0.13 0.15 0.13 0.19 0.22 0.23 0.20 0.20 0.20 0.19 0.19 0.19 0.18 0.20 0.22 0.23 0.23 0.24 0.24 0.24 0.25 0.24 0.24 0.24 0.24 0.22 0.20 0.21 0.22 0.20 0.20 0.19 0.17 0.17 0.15 0.15 0.18 0.19 0.18 0.18 0.17 0.15 0.15 0.17 0.17 0.17 0.18 0.18 0.19 0.19 0.18 0.18 0.15 0.12 0.11 0.15 0.15 0.13 0.11 0.09 0.09 0.09 0.09 0.08 0.06 0.05 0.05 0.05 0.05 0.05 0.04 0.05
Wind_Speed
8 7 7 7 6 4 3 2 1 1 2 2 2 2 3 3 4 4 5 6 6 6 5 5 4 5 5 5 6 7 8 9 11 12 12 12 13 14 15 14 14 14 12 12 13 11 12 12 13 13 12 13 14 14 14 14 14 14 13 14 15 15 15 15 15 16 16 18 18 18 18 18 19 19 19 21 21 22 23 24 25 25 26 26 26 24 22 23
8 8 8 7 6 4 3 2 2 2 2 2 2 2 3 4 4 5 5 6 6 6 5 4 4 4 5 5 6 6 7 9 10 12 13 13 15 15 14 14 13 13 12 12 12 12 12 13 13 12 12 12 13 14 13 14 14 13 13 14 15 15 16 16 16 17 17 18 19 19 19 19 20 20 20 22 23 22 23 25 25 25 26 26 25 23 23 24
8 8 7 6 5 4 3 3 3 3 3 2 2 3 3 4 5 5 6 6 6 5 5 5 5 5 5 5 5 6 7 9 11 12 13 14 15 15 15 14 13 12 12 12 12 12 12 12 12 12 12 12 13 14 13 14 14 14 14 15 16 16 17 18 17 18 19 19 20 20 21 21 22 21 21 22 23 23 24 25 24 26 26 25 25 24 24 25
8 8 7 6 5 4 4 4 3 3 3 3 3 3 3 4 5 5 5 6 6 5 5 5 6 6 6 4 4 5 6 9 10 11 12 15 16 16 15 15 13 12 11 12 12 12 12 12 13 13 13 13 14 14 14 15 15 14 14 15 16 16 18 19 19 20 20 21 21 21 21 23 23 22 22 22 23 24 26 27 27 28 27 25 26 25 25 25
8 7 7 6 5 4 4 4 3 3 3 3 3 3 3 4 4 5 5 6 6 5 5 5 6 8 8 6 5 5 6 7 9 11 13 15 16 16 15 14 13 12 12 12 12 13 12 13 13 14 13 13 15 15 14 15 15 15 15 16 16 16 18 20 20 21 21 21 21 21 22 24 23 23 24 23 24 26 26 28 29 29 28 27 27 26 26 26
7 7 6 5 5 5 4 3 3 3 2 2 3 3 4 4 4 4 5 6 6 5 4 4 6 8 9 9 8 8 7 7 9 11 14 15 15 15 15 14 14 12 13 12 12 13 13 14 13 13 14 14 14 15 15 16 16 16 17 18 18 18 19 21 21 21 22 21 22 22 23 24 23 25 25 24 26 28 28 28 28 27 27 27 27 27 27 27
6 6 5 4 5 4 4 3 3 3 2 3 3 3 4 4 4 4 5 5 6 6 5 4 4 6 7 8 8 10 10 8 10 12 13 14 14 14 14 14 14 13 13 13 13 13 13 14 13 12 13 14 14 14 15 17 16 16 18 19 19 19 20 22 22 23 23 23 24 24 24 24 24 26 26 26 29 30 30 29 28 27 26 26 27 27 28 27
6 5 5 4 4 4 3 3 2 2 2 3 3 3 3 4 4 4 5 5 6 7 6 5 4 5 6 7 7 10 11 10 11 12 13 14 13 14 13 13 15 14 14 14 14 13 13 14 13 13 14 14 14 14 16 17 17 17 18 20 20 20 22 23 24 24 24 24 25 25 25 26 26 26 27 29 32 30 29 29 29 28 27 27 28 28 28 28
6 5 5 4 4 3 2 2 2 2 2 2 2 3 3 4 4 4 5 5 6 7 7 7 6 5 6 7 7 9 10 10 11 12 13 13 13 13 14 14 15 15 14 15 15 14 14 14 14 14 14 14 14 15 17 18 18 18 18 21 21 22 23 24 24 24 24 25 25 25 27 28 27 27 29 31 32 30 29 29 29 29 28 29 29 29 29 29
5 5 4 4 3 2 2 2 2 2 2 2 2 3 3 4 4 4 5 5 6 7 9 9 7 7 7 7 9 9 9 10 11 12 13 13 12 12 14 14 15 15 14 15 16 15 15 14 14 14 14 15 15 16 17 17 18 18 20 21 21 23 24 24 24 25 25 25 25 26 28 28 27 28 29 31 30 29 29 29 30 30 30 30 30 30 30 30
5 5 4 4 3 2 2 2 3 3 3 3 3 3 4 4 4 4 5 6 6 7 8 9 9 9 9 10 10 9 9 11 11 12 12 12 12 12 14 14 15 15 15 15 16 16 15 14 14 15 15 15 16 17 17 17 18 19 21 22 22 24 24 24 24 25 25 25 26 27 29 28 27 28 30 31 30 30 29 30 31 31 31 31 30 30 30 30
5 5 4 3 3 3 3 3 3 3 3 3 4 4 5 5 5 6 6 6 7 7 6 7 7 8 9 11 11 9 10 12 12 12 12 12 12 12 13 14 14 15 15 15 16 16 15 15 15 16 16 15 16 17 17 18 20 20 22 22 23 24 24 24 23 24 26 26 27 28 30 28 26 29 32 31 30 30 30 31 32 31 31 31 30 30 30 30
5 5 4 3 3 4 4 4 3 4 3 4 4 5 6 6 7 7 7 6 6 7 7 7 7 7 9 10 10 10 11 12 13 12 12 12 12 12 13 14 14 15 15 15 16 16 16 15 16 16 16 16 17 17 18 20 21 21 21 22 23 25 24 24 24 26 28 27 27 28 32 31 27 30 32 30 30 30 31 32 32 32 32 31 31 30 30 30
5 5 4 4 4 4 4 3 4 4 4 5 6 7 8 8 8 8 7 7 6 7 8 8 8 8 10 9 8 11 11 12 13 13 13 13 12 12 14 15 15 15 16 16 16 16 16 16 16 17 16 17 18 18 20 21 21 21 22 21 23 25 24 25 26 27 28 28 28 28 32 33 30 31 32 30 31 31 32 32 32 32 32 31 30 29 29 29
5 5 4 5 5 4 4 3 4 4 5 6 7 8 8 9 9 8 8 7 7 7 7 7 8 8 9 8 8 11 12 13 15 15 14 14 13 14 15 15 14 15 16 16 16 16 17 16 17 18 17 19 19 19 21 21 22 22 23 23 24 25 26 27 27 27 28 29 29 28 31 34 32 31 32 31 32 32 32 32 31 31 30 30 29 28 28 28
6 5 5 5 5 4 4 4 5 6 7 8 9 9 8 8 8 8 8 8 9 8 7 8 7 8 9 8 8 11 13 14 15 15 15 14 14 14 15 15 14 16 15 16 16 17 17 17 17 17 18 20 20 20 21 21 22 23 23 25 25 26 28 29 27 27 28 29 30 29 31 35 33 32 33 33 32 32 32 31 30 29 28 28 27 27 28 28
6 6 6 5 4 4 4 6 7 8 9 10 10 10 10 9 7 7 7 8 8 8 9 9 7 8 9 8 9 11 12 13 14 15 15 14 14 14 16 15 15 16 15 15 17 17 18 17 16 17 19 20 20 20 22 23 23 24 24 25 25 26 28 31 30 29 29 29 31 30 32 36 35 34 36 34 32 31 31 31 28 27 27 27 27 27 28 28
6 6 6 4 4 4 6 8 9 10 11 11 11 11 11 11 10 9 7 6 7 7 8 9 9 8 8 10 10 10 11 12 15 16 16 15 14 15 16 15 15 16 16 15 17 18 18 17 17 18 20 21 21 22 22 22 23 24 25 26 27 27 28 30 31 31 32 32 32 32 34 37 37 36 36 34 31 30 30 29 27 26 27 27 27 27 27 27
7 6 5 5 5 6 8 9 10 10 10 10 10 10 10 10 12 12 11 10 10 9 7 8 9 8 7 9 10 10 10 12 15 17 17 16 14 14 16 16 16 17 17 15 17 19 18 18 19 20 21 21 21 21 21 21 21 23 25 26 28 30 30 30 32 32 33 34 34 33 35 37 38 37 35 33 30 28 29 28 27 27 27 27 27 26 25 26
7 6 6 6 7 9 9 10 10 9 9 8 8 8 7 8 9 10 12 13 12 11 9 8 9 9 7 8 10 12 11 11 15 18 19 17 14 14 16 16 16 18 17 16 17 18 18 18 20 20 20 21 21 20 21 21 22 24 26 27 28 30 32 32 33 32 32 35 35 34 37 38 38 37 33 31 29 29 30 29 29 28 27 26 25 25 25 26
7 7 7 8 9 10 10 10 9 9 9 8 8 8 7 8 9 8 9 11 10 10 11 10 9 10 9 9 11 12 12 11 14 18 20 18 15 14 16 17 16 18 18 16 16 18 18 19 21 20 19 21 22 21 21 23 24 25 26 28 30 30 33 34 33 33 34 35 36 37 39 39 37 34 31 31 31 31 33 32 30 28 26 26 25 24 25 26
8 8 9 10 10 10 10 10 9 9 9 9 9 10 9 9 10 10 10 10 9 10 10 10 11 11 10 10 10 12 12 12 14 18 20 19 17 15 16 17 16 16 18 18 18 19 19 20 21 21 20 21 23 23 23 24 25 26 27 29 31 31 34 35 33 33 34 36 39 39 40 39 36 31 30 33 33 33 36 33 30 27 25 26 26 26 26 26
9 10 11 10 10 10 9 9 9 9 10 10 10 10 10 10 10 10 10 10 9 9 10 10 11 11 11 11 11 11 13 13 13 17 20 19 17 16 16 17 17 17 19 19 19 19 20 20 21 21 21 22 24 24 24 25 26 27 28 29 31 32 34 35 36 36 35 36 38 38 39 37 33 30 31 34 34 35 36 33 30 28 27 27 27 27 26 27
10 11 11 10 9 9 9 9 9 9 9 9 9 9 9 8 8 8 9 9 8 9 9 9 10 11 11 11 12 11 11 13 13 16 19 19 17 16 16 17 17 18 19 19 18 19 20 20 20 21 22 23 24 25 26 27 28 28 28 28 31 34 33 34 38 39 38 36 35 38 40 35 31 32 34 34 35 37 36 33 32 31 29 28 28 27 27 28
11 11 10 10 9 9 9 9 8 9 8 8 8 7 7 6 6 6 7 7 8 8 9 8 9 11 11 11 13 10 10 13 14 15 18 19 17 16 16 17 18 19 20 19 19 19 20 20 20 22 24 24 25 26 27 27 29 30 28 28 31 34 34 36 38 39 39 35 34 38 37 34 33 34 34 35 37 38 37 36 35 33 31 30 29 29 29 29
11 10 10 9 9 9 9 8 8 8 7 7 7 6 6 5 5 5 6 7 7 7 8 8 8 10 11 12 13 10 9 12 14 15 18 19 17 16 17 18 18 19 20 19 19 19 20 20 21 23 24 25 25 27 26 27 30 30 29 30 32 34 36 37 38 37 36 35 36 35 32 33 36 35 35 36 37 37 38 38 37 35 33 31 30 30 31 31
10 10 10 9 9 8 8 8 7 7 6 6 6 5 4 4 5 5 5 6 6 6 8 8 8 10 11 12 14 11 10 13 13 16 19 19 18 17 17 19 19 19 19 20 20 20 20 22 23 24 24 25 26 28 27 28 30 30 30 32 34 36 37 37 37 34 33 35 36 33 31 33 35 34 36 37 36 38 39 38 38 36 33 32 31 32 32 32
11 10 10 9 9 8 8 7 7 6 6 5 5 5 5 5 5 5 6 6 5 6 7 7 8 10 11 12 14 13 11 13 13 15 19 19 19 17 17 19 19 19 20 21 22 21 20 22 24 25 25 25 27 28 27 28 29 30 32 33 35 36 36 36 35 33 34 35 34 33 34 35 35 35 37 36 36 38 39 39 38 36 34 33 33 33 33 34
10 10 9 8 8 8 7 7 6 6 5 5 5 5 5 5 5 6 7 6 5 6 6 7 8 10 11 11 13 13 12 14 14 15 18 19 20 18 17 18 19 18 20 21 21 20 20 21 22 24 24 25 27 28 28 27 28 32 33 34 35 34 35 35 34 34 35 33 31 34 35 35 37 38 37 36 37 39 39 38 37 35 34 33 34 35 36 37
10 9 8 7 6 6 5 5 5 5 5 5 5 5 6 6 6 6 6 5 5 5 6 8 8 9 12 11 12 14 13 14 15 16 18 19 20 20 17 17 19 18 19 22 21 21 21 21 22 24 24 25 28 29 29 27 29 33 34 35 37 34 35 34 33 35 36 32 31 34 35 35 37 38 36 38 39 39 39 38 37 36 35 34 36 38 39 40
9 8 7 6 5 5 5 5 5 5 5 5 5 5 6 5 6 7 5 4 5 5 6 8 8 9 12 11 11 13 13 14 16 16 17 17 19 21 19 18 20 19 20 23 24 24 23 22 24 25 24 27 29 29 30 29 31 33 33 37 38 36 36 35 34 36 34 33 33 35 37 37 36 36 37 40 41 40 39 38 38 37 37 37 39 40 42 45
8 7 6 6 5 5 5 5 5 5 5 5 6 6 6 5 5 6 4 3 4 5 6 6 8 10 11 11 11 12 13 14 15 15 15 16 18 20 20 21 22 22 23 25 25 25 23 22 25 26 25 28 30 31 31 31 32 33 35 38 38 36 37 36 36 36 33 34 36 38 40 37 34 35 38 40 41 40 38 38 38 38 38 40 43 45 48 50
8 7 6 6 6 5 6 5 5 5 5 5 6 6 7 6 5 5 4 4 4 5 6 6 8 9 10 11 12 12 12 14 16 15 15 17 18 19 21 22 23 22 23 24 25 26 24 23 26 26 26 29 31 32 32 32 33 34 35 36 35 34 34 34 36 36 36 38 41 41 38 34 35 38 39 39 39 38 39 40 38 38 40 45 48 50 52 53
7 7 6 6 6 6 6 6 5 6 5 6 6 6 7 6 5 5 4 3 4 5 6 6 8 10 10 11 12 12 12 13 15 16 16 17 18 20 21 23 24 23 22 24 24 25 25 24 26 26 26 29 31 30 30 30 31 32 33 33 33 33 31 31 34 36 38 41 43 41 35 34 39 41 40 39 38 39 41 42 41 42 45 50 52 53 54 54
7 7 6 6 6 5 5 5 5 6 6 6 6 6 6 5 4 4 4 3 4 5 5 7 9 10 10 11 12 12 12 13 15 15 17 18 18 20 21 22 24 24 24 24 24 24 24 23 25 26 27 29 30 29 29 30 30 31 32 33 35 34 30 31 33 34 38 40 40 37 34 36 41 41 40 39 39 41 43 44 47 49 52 54 54 55 54 53
6 5 5 5 5 5 5 5 6 6 6 6 7 6 5 4 4 4 3 4 5 5 6 7 9 10 10 11 12 13 12 13 15 15 17 18 17 19 21 21 23 24 24 24 24 25 24 24 25 26 28 29 29 29 30 30 31 32 34 35 35 32 30 33 35 36 38 39 37 36 37 41 41 40 40 40 41 44 46 49 52 54 55 56 55 55 54 53
5 5 5 5 5 4 5 5 6 6 6 6 7 5 4 4 4 3 3 4 5 6 7 7 8 9 10 10 12 13 13 13 15 16 16 17 18 19 21 22 23 24 24 24 24 24 24 25 26 26 28 29 28 28 30 30 31 33 34 35 35 32 31 33 35 37 37 37 37 39 42 44 41 40 41 42 43 47 51 53 54 55 57 57 56 56 54 53
5 5 5 5 5 5 5 6 6 6 6 6 6 5 4 3 3 3 3 4 5 6 7 7 8 9 9 10 11 13 13 14 15 16 16 17 18 19 21 22 22 23 24 25 25 25 25 25 26 26 28 29 28 28 29 31 32 33 33 34 34 33 34 35 34 34 36 37 39 43 44 41 40 41 43 44 47 51 54 55 56 57 58 58 57 56 54 53
5 6 6 5 5 5 6 6 6 6 6 6 5 4 3 3 2 3 3 4 5 6 7 7 8 9 9 9 11 12 13 13 15 16 16 17 18 18 20 21 22 24 25 25 25 26 26 25 25 27 29 29 29 28 29 30 32 34 34 34 35 32 32 34 33 32 34 35 38 44 44 40 40 43 44 46 50 53 55 56 57 58 59 58 56 55 55 53
6 6 5 5 5 6 6 6 6 5 5 4 4 3 3 2 2 3 3 4 5 6 6 6 7 9 9 9 10 12 13 13 14 16 16 17 18 18 20 21 22 24 25 25 25 26 27 25 24 28 30 29 28 29 28 28 32 36 36 36 36 34 34 35 33 31 33 34 37 41 43 42 43 43 44 48 52 53 55 58 59 59 60 58 56 57 56 53
6 6 5 5 5 5 6 6 6 5 5 4 3 3 3 2 3 3 4 4 5 5 6 6 7 8 9 10 11 11 12 13 14 16 16 17 18 19 20 21 22 23 24 26 26 27 27 25 26 30 31 29 28 28 27 28 31 35 35 35 35 36 37 36 35 34 34 34 36 37 40 43 43 42 45 49 52 54 58 61 61 60 59 57 57 59 56 52
7 6 5 4 5 5 6 6 4 4 4 3 3 3 2 3 3 3 4 4 5 6 6 7 7 8 9 10 10 11 12 13 14 15 16 17 18 19 20 22 22 22 23 25 26 27 27 26 27 30 29 28 28 28 28 29 32 34 34 34 34 35 36 34 34 36 37 37 38 37 39 42 42 43 47 51 53 57 60 62 62 60 58 57 60 59 54 51
7 6 5 4 4 5 6 5 3 3 3 3 2 2 2 3 3 3 3 4 5 6 7 7 7 8 9 9 10 11 12 13 13 15 16 16 18 19 20 22 23 22 23 24 26 27 27 27 29 31 29 29 29 29 30 30 32 34 35 35 35 35 35 32 32 36 37 37 39 39 40 42 44 47 50 53 56 59 60 62 62 60 57 59 61 58 53 52
7 6 5 4 4 4 5 4 3 3 2 2 2 2 2 3 3 4 4 4 5 5 6 7 7 8 9 10 11 11 12 13 13 15 16 16 17 19 20 22 23 22 23 24 25 27 26 27 30 31 31 31 31 31 32 32 34 34 34 35 35 35 36 35 35 36 35 36 39 40 41 45 49 52 54 56 58 60 61 62 62 59 58 60 61 57 54 54
6 5 4 4 4 4 4 4 4 3 2 2 3 2 3 3 3 4 4 4 5 5 6 7 8 8 9 10 11 12 13 13 14 15 16 17 18 19 20 22 22 22 23 24 25 26 26 27 28 28 28 29 29 30 32 34 36 34 34 35 36 36 36 36 37 37 36 38 40 38 41 50 54 55 56 57 59 61 62 63 61 59 59 61 60 56 55 56
5 4 3 3 4 5 5 4 4 4 2 2 3 2 2 3 3 4 4 5 5 6 6 7 8 8 9 10 11 12 13 14 14 15 16 17 18 19 20 21 22 22 24 25 26 26 26 26 26 25 25 26 28 29 31 33 35 35 35 36 36 36 36 36 37 38 39 42 40 39 45 53 57 57 58 59 61 62 63 63 62 60 61 61 59 56 57 57
4 4 3 2 3 4 5 3 4 3 2 2 3 2 2 3 4 4 5 5 5 6 7 7 8 9 10 10 11 12 13 14 15 15 16 17 18 19 20 21 21 23 24 25 26 26 26 27 27 26 26 28 28 29 31 32 33 35 35 35 36 37 37 37 38 39 41 42 43 47 51 54 56 57 57 60 62 61 62 63 62 61 63 62 59 58 59 58
3 3 3 2 2 2 2 2 3 4 3 3 3 3 3 3 4 4 5 5 6 6 7 8 9 10 9 10 10 12 13 14 15 15 16 17 19 20 21 21 21 23 24 25 26 26 26 27 27 27 28 29 28 29 31 32 33 33 33 33 35 36 37 37 37 39 41 41 43 50 52 52 54 56 57 60 61 61 62 62 62 63 65 62 60 61 61 58
3 4 2 2 2 2 2 1 2 4 4 4 3 3 3 3 3 4 5 6 7 7 7 8 9 10 10 10 10 11 12 13 14 15 15 16 18 19 20 21 22 23 24 25 27 27 26 27 28 28 30 30 29 30 31 32 32 32 32 33 34 35 36 37 38 40 41 40 43 48 51 51 52 53 57 60 60 61 63 62 63 65 64 62 62 62 61 59
3 3 2 3 3 2 2 1 1 3 4 4 4 4 4 3 4 5 5 6 6 7 7 8 8 9 10 10 10 11 12 12 13 14 14 16 18 19 19 20 21 23 25 26 26 27 28 29 29 29 31 31 30 31 32 31 31 30 31 33 34 36 37 38 39 42 42 43 45 47 49 50 50 53 57 59 60 61 63 64 65 64 63 63 64 63 61 60
2 2 3 3 2 2 1 2 2 2 3 4 4 4 4 4 4 5 6 7 6 7 7 7 7 9 10 10 10 12 12 12 12 14 14 15 17 18 19 20 20 23 25 25 26 28 28 29 30 31 31 31 30 33 34 32 30 29 31 34 36 37 38 38 40 43 45 47 48 48 48 49 52 55 58 59 61 62 62 64 65 63 62 63 65 63 62 61
2 2 2 2 1 2 2 2 3 2 3 4 4 4 5 5 5 5 6 7 7 7 7 7 7 8 10 10 11 12 12 12 13 14 15 16 17 18 19 20 20 22 24 24 26 28 28 29 31 30 31 31 32 35 35 31 29 30 32 33 34 36 39 40 43 44 44 45 46 46 47 50 54 57 58 59 61 61 62 63 63 63 63 64 64 64 62 61
Wind_Direction
140 148 152 154 156 152 153 145 124 96 87 78 61 47 37 29 21 15 10 6 0 357 356 356 359 5 11 13 13 10 11 12 9 14 14 4 354 350 348 345 344 346 349 351 352 348 343 341 335 333 333 334 335 334 334 335 334 332 330 325 320 319 316 313 310 308 311 312 311 307 304 303 304 302 300 301 300 297 295 292 291 291 290 289 290 285 275 272
130 133 137 141 143 138 133 120 106 93 84 73 63 51 35 23 16 12 7 5 3 3 5 6 5 5 5 6 7 7 9 9 10 13 11 2 357 356 354 351 349 348 350 351 351 350 347 343 340 342 342 340 339 339 338 337 338 335 330 326 320 318 316 315 312 311 311 312 311 308 305 303 302 302 300 300 299 297 295 294 293 292 290 289 287 281 274 272
128 130 132 133 126 116 110 104 96 87 75 66 57 42 28 18 13 12 10 8 10 16 22 23 16 4 357 356 358 2 8 12 14 11 4 1 0 0 359 355 351 350 352 352 351 352 353 350 349 351 348 345 342 341 341 339 337 334 331 327 320 319 319 317 313 311 310 311 311 309 307 304 303 303 301 300 300 298 293 292 291 288 286 285 283 278 273 272
125 127 128 127 123 115 106 99 95 88 73 63 51 39 27 18 17 17 16 16 21 29 33 33 25 16 12 6 1 6 15 20 16 7 2 2 1 1 1 358 356 356 358 359 359 359 358 357 355 354 351 347 343 343 343 340 337 335 333 327 323 326 324 318 314 313 312 312 311 310 310 307 304 303 301 301 301 299 293 289 287 286 284 282 280 277 274 273
131 129 129 127 122 113 101 95 92 85 71 61 49 38 28 24 25 25 25 27 31 38 40 38 34 34 36 34 25 18 23 21 11 5 3 2 1 2 2 4 6 6 6 5 3 2 0 359 357 356 353 348 346 346 343 340 340 335 330 326 327 329 324 319 318 316 315 314 314 312 310 308 307 304 300 299 299 298 296 293 290 288 285 281 279 276 274 274
139 133 132 126 118 110 100 94 88 76 70 60 48 38 33 32 35 36 38 36 37 41 41 37 39 42 43 44 40 36 41 27 6 4 3 2 3 4 6 9 13 12 10 7 3 3 360 359 358 355 353 350 347 345 342 340 340 334 330 329 327 325 322 321 321 318 316 315 313 311 310 310 310 306 302 297 295 296 298 297 294 292 286 283 281 277 275 274
146 137 130 120 116 115 103 94 85 73 69 57 49 42 40 40 44 49 47 44 42 39 38 40 42 43 43 43 41 42 46 28 8 5 3 4 6 7 9 11 13 11 10 8 3 2 0 359 357 355 355 350 345 344 342 339 338 335 330 330 328 323 319 320 321 318 316 314 311 312 311 310 308 307 307 299 294 296 298 297 295 294 289 285 282 278 276 274
151 140 128 118 116 117 106 93 77 67 63 54 51 47 47 50 55 59 55 52 46 38 42 53 55 50 41 37 39 40 35 19 10 8 5 8 9 11 13 13 14 12 12 9 3 0 359 359 356 353 352 348 344 344 343 339 338 336 330 329 329 324 320 320 320 318 316 314 313 313 311 310 308 308 308 301 298 299 298 296 294 294 291 285 282 279 277 275
148 139 129 124 121 113 99 81 67 66 63 59 56 50 54 58 63 65 60 56 49 47 54 64 65 53 43 40 44 40 26 14 11 10 10 11 12 14 16 15 14 14 14 10 6 3 360 357 354 352 350 348 347 345 343 340 336 334 331 329 328 326 324 323 320 320 318 315 315 313 311 312 311 311 308 303 302 302 299 297 295 293 291 286 283 281 277 276
144 136 131 129 123 106 83 72 73 76 74 70 64 61 64 67 71 71 67 61 57 59 62 65 63 51 47 46 47 40 22 14 14 14 13 13 13 15 15 14 13 14 12 9 8 7 3 359 356 355 353 351 349 346 343 341 337 335 333 329 327 327 326 324 322 322 320 317 316 313 313 315 315 314 310 308 308 306 303 300 297 295 292 289 286 283 279 277
142 136 133 130 117 96 81 84 86 86 81 74 70 71 72 71 77 79 76 70 66 66 64 67 65 57 56 54 50 41 24 19 16 16 16 13 15 14 13 13 12 12 10 9 8 6 4 2 360 357 353 350 348 346 343 342 340 338 337 332 330 332 329 326 326 325 324 321 318 315 316 318 318 314 309 308 309 307 304 301 299 296 294 291 288 285 282 279
143 139 134 124 110 98 97 97 92 88 81 78 77 77 78 76 82 87 85 79 71 67 63 64 61 53 53 50 48 39 28 23 17 17 17 15 16 14 13 13 12 12 9 10 7 4 5 3 3 359 353 351 349 348 345 344 343 340 341 337 333 337 334 330 331 329 328 324 321 320 319 320 319 311 307 310 311 308 306 302 300 298 295 293 289 287 284 282
147 141 133 123 114 108 105 98 89 84 85 91 88 85 85 84 87 90 89 83 75 70 65 63 57 51 53 50 44 38 30 24 20 19 18 17 19 17 14 13 12 11 11 12 8 5 6 3 5 2 357 356 351 348 346 346 345 340 343 341 337 339 336 333 332 329 329 326 325 325 321 321 318 310 310 313 311 309 306 303 301 299 297 294 291 288 286 284
150 142 132 125 120 114 107 96 88 87 93 99 98 94 90 89 90 89 87 81 77 73 66 62 60 57 58 57 45 36 30 26 25 23 19 18 19 16 14 13 12 10 10 11 8 6 6 3 6 3 358 357 350 347 346 347 347 342 342 343 341 339 335 333 332 330 331 328 328 327 320 320 320 314 314 314 311 310 307 304 302 299 297 295 292 290 287 286
152 146 133 127 123 116 108 98 95 98 101 104 105 101 94 92 89 84 81 77 74 72 64 60 60 59 59 55 42 32 29 29 26 21 18 18 18 15 11 10 11 9 8 9 7 5 3 2 3 1 355 353 352 349 347 346 346 345 343 341 340 338 334 334 333 332 331 328 329 327 320 321 322 318 318 318 314 312 309 307 304 300 298 295 293 290 289 288
154 148 137 130 123 113 106 102 105 106 104 105 105 100 96 94 89 85 82 74 71 68 64 61 60 63 60 47 36 31 29 27 23 20 19 19 19 14 9 9 8 6 5 5 4 2 0 1 1 359 355 354 353 350 348 347 344 346 345 340 338 338 336 336 335 333 332 330 329 327 322 322 323 322 322 320 317 314 312 310 306 302 300 296 294 292 290 289
153 147 139 131 120 110 109 113 114 109 105 106 103 96 91 88 87 88 81 72 71 68 66 63 62 66 56 42 37 31 28 26 22 21 20 19 19 14 11 11 7 4 3 2 2 0 360 1 358 356 356 354 350 349 351 349 344 344 345 341 338 338 337 336 336 335 336 333 329 326 323 321 322 323 322 320 317 315 314 313 310 306 303 299 296 295 293 290
150 146 139 131 119 115 119 121 119 113 109 107 103 97 91 84 82 82 78 76 72 69 66 55 56 67 50 38 37 28 25 25 23 21 19 19 19 17 15 12 8 6 5 3 2 2 360 0 359 355 355 353 352 355 353 347 343 343 343 341 340 339 337 335 334 336 337 333 329 328 325 322 323 324 323 323 322 318 316 315 313 309 305 302 300 298 295 292
145 142 136 127 118 119 123 123 120 118 115 110 105 101 96 87 81 76 74 75 72 71 69 50 51 65 51 35 32 25 26 28 25 22 18 16 16 16 15 13 10 10 10 4 1 3 1 360 0 357 354 353 352 355 352 345 343 341 340 341 339 338 337 335 332 335 337 334 331 329 326 325 326 327 328 330 327 323 321 319 316 311 307 304 303 301 297 293
141 137 132 124 119 118 120 120 119 121 120 117 111 103 99 92 82 74 69 71 73 73 72 60 55 60 52 39 31 26 28 32 28 22 16 14 12 12 13 10 10 13 12 3 358 2 4 3 0 355 351 350 349 351 351 349 347 344 342 341 339 336 337 336 333 336 339 335 332 330 329 329 329 329 333 334 331 328 325 322 318 313 309 307 306 303 299 296
139 133 129 125 120 117 117 118 116 119 120 118 113 104 104 101 92 88 80 74 72 69 65 61 58 54 49 42 32 29 31 30 25 20 16 14 15 14 11 11 12 11 6 1 358 360 5 5 358 352 351 351 351 352 353 351 348 345 343 341 340 338 336 335 334 338 342 337 333 333 332 332 332 333 337 336 333 332 329 323 319 317 313 311 309 306 303 300
135 131 129 125 121 118 117 116 113 116 116 111 107 104 106 104 98 96 91 81 70 64 60 56 55 48 44 41 34 33 33 26 18 16 14 14 18 17 12 14 15 9 3 3 2 1 4 2 354 353 355 356 355 354 353 351 347 345 344 343 341 340 338 337 338 340 343 337 334 336 336 335 337 338 339 337 334 333 331 327 322 320 318 316 313 310 307 303
132 130 129 125 121 118 116 116 114 113 113 111 108 107 107 103 98 92 85 81 71 61 56 53 53 45 40 38 32 34 36 30 19 13 13 14 17 17 15 14 11 7 4 5 6 4 2 357 354 356 358 356 353 353 353 351 348 345 345 343 341 342 342 340 340 341 341 336 334 336 337 337 340 340 339 338 337 336 336 334 330 326 323 320 317 314 310 306
132 130 129 125 119 119 119 116 113 113 114 114 111 111 112 105 100 92 81 78 70 60 57 56 54 46 40 35 29 33 37 32 23 13 12 15 15 14 14 11 9 7 3 4 8 6 360 354 356 358 357 355 351 351 353 351 348 345 344 343 341 342 341 337 337 339 339 339 339 339 338 340 342 340 339 339 339 340 340 339 337 333 329 326 322 318 313 307
133 131 129 123 118 121 122 116 113 115 116 114 113 113 111 105 100 93 84 78 65 54 54 54 51 43 36 31 27 31 36 30 23 15 13 15 14 11 11 8 7 6 1 3 6 3 359 355 357 357 354 356 355 352 352 350 348 346 345 344 342 341 340 337 338 340 341 341 343 342 341 341 342 342 341 339 340 341 340 340 339 337 334 330 326 321 314 309
134 133 129 122 119 120 120 117 115 117 114 113 118 116 107 103 97 93 90 80 63 49 46 48 48 38 30 27 23 30 34 22 19 17 14 14 12 12 10 5 6 5 0 2 3 0 359 358 359 358 354 356 356 352 351 351 349 347 347 347 344 342 340 338 340 343 342 340 341 344 341 337 340 343 341 340 341 342 340 340 340 338 336 332 326 321 315 311
133 132 128 121 118 118 119 119 118 117 116 117 121 115 108 103 97 94 91 77 58 49 45 41 41 33 28 25 24 34 31 11 13 18 15 13 10 12 11 5 4 3 0 3 3 359 358 358 359 358 357 356 356 353 350 351 350 346 346 347 344 341 340 340 343 344 343 341 342 346 343 337 339 342 340 340 342 342 341 340 339 338 336 331 326 321 316 314
130 131 128 120 115 114 116 119 116 115 119 121 115 109 109 105 101 94 92 85 58 51 48 37 38 32 27 27 28 37 29 12 16 14 10 13 10 11 13 8 4 359 359 5 3 358 358 358 356 356 358 357 354 351 349 351 350 345 345 346 342 341 342 343 345 346 345 345 345 347 346 341 339 341 340 340 342 343 342 340 339 337 334 330 326 323 320 317
128 129 130 125 118 112 112 115 114 115 120 118 109 106 104 102 101 91 90 92 63 54 50 36 36 25 21 27 27 29 25 18 19 9 8 15 11 10 12 8 7 2 359 4 3 358 357 357 355 357 358 356 352 348 348 351 348 344 345 344 342 344 347 348 349 348 348 349 346 345 347 344 339 341 342 341 342 342 341 339 338 335 332 329 327 326 323 320
125 125 128 128 123 116 113 111 111 117 117 114 112 106 98 95 97 90 86 88 66 52 43 37 34 22 19 25 21 19 20 16 13 9 11 14 10 11 11 6 8 8 2 2 1 358 358 356 355 357 357 354 351 349 349 351 348 346 346 345 345 348 351 352 351 350 351 352 347 344 347 345 340 342 344 342 342 341 341 340 338 335 332 330 329 327 325 321
122 119 120 123 126 125 122 117 114 117 114 113 113 104 99 95 94 96 93 85 68 46 39 37 31 26 27 27 18 13 15 12 9 11 10 8 8 10 10 5 6 7 4 3 0 357 359 359 356 356 355 354 353 350 351 352 350 349 348 348 349 350 352 353 352 354 355 351 348 346 345 343 340 342 345 344 343 343 342 341 338 335 333 333 330 327 325 322
122 114 107 110 123 124 122 125 120 114 113 114 110 103 104 97 84 94 92 67 57 43 42 35 24 26 25 23 18 11 11 10 10 14 10 7 9 9 9 7 4 4 4 2 360 358 359 358 355 356 355 354 353 350 351 352 352 351 350 352 353 351 352 353 353 355 353 349 347 345 343 343 342 343 345 344 344 344 344 343 340 337 336 334 330 326 323 321
121 113 104 102 112 117 117 122 118 114 116 114 110 102 99 98 91 96 87 62 56 43 41 33 20 22 21 19 17 11 13 11 8 11 9 8 11 8 7 7 6 6 2 0 0 359 358 356 356 357 355 354 355 353 352 351 352 353 354 356 357 353 351 350 350 351 349 346 346 345 344 345 345 345 345 344 344 344 345 344 341 338 335 331 328 325 323 322
115 109 108 106 106 109 112 116 116 118 118 111 110 103 94 99 103 95 78 60 55 40 36 31 18 20 25 23 15 10 15 12 8 10 8 8 9 7 5 6 7 8 4 2 2 1 359 355 356 358 355 354 356 356 352 351 352 353 354 357 357 354 351 348 348 348 345 344 344 348 350 347 345 345 345 345 344 344 344 344 341 337 333 330 328 327 326 326
117 106 106 106 102 102 106 113 120 121 119 111 105 101 103 110 108 95 77 54 49 33 26 27 25 24 21 16 13 13 15 10 8 12 9 8 9 7 5 4 5 7 6 5 3 2 360 352 352 356 355 354 356 355 353 354 354 352 355 357 354 353 351 347 345 344 343 343 346 350 351 346 345 346 347 346 345 345 345 343 340 336 333 332 331 331 330 330
123 109 101 97 98 100 103 114 123 121 120 112 99 98 113 119 106 97 80 54 48 37 24 23 28 26 15 10 11 13 13 9 8 11 9 8 8 7 6 4 4 6 7 6 3 2 360 352 352 356 356 357 358 354 354 356 355 353 355 355 352 353 354 349 346 346 346 346 349 351 348 345 347 348 348 347 345 346 345 341 339 337 336 336 335 334 333 332
122 113 103 95 94 99 107 118 121 120 118 108 102 109 121 113 100 95 76 54 45 42 38 30 24 22 15 11 9 6 8 8 7 10 9 7 6 7 6 4 4 5 5 5 2 1 359 353 354 358 356 355 357 357 357 357 356 356 355 353 352 354 356 354 349 349 350 348 349 351 347 345 348 349 347 347 347 346 343 341 340 339 339 338 337 336 335 334
123 116 108 98 94 100 112 118 115 116 112 100 103 116 114 103 92 86 72 54 41 37 40 34 22 19 17 13 7 3 6 8 7 9 8 6 5 6 6 3 3 3 3 4 2 1 0 355 354 358 356 353 356 359 357 355 357 359 356 354 355 355 354 354 351 349 350 348 347 349 347 347 348 348 347 348 347 345 343 343 342 341 341 340 339 338 337 336
124 119 111 97 96 104 111 116 114 109 103 99 110 117 104 97 81 72 62 43 37 36 33 26 19 19 17 13 8 4 6 7 6 7 7 5 4 5 5 3 2 1 1 2 2 360 0 358 355 355 354 354 357 359 357 355 356 357 357 357 357 356 352 352 352 351 350 348 345 346 348 350 349 347 348 349 347 345 344 344 344 343 342 341 340 340 339 339
122 120 118 100 96 108 109 106 102 95 97 108 124 115 93 90 75 58 47 34 31 29 25 21 19 16 11 9 8 4 5 6 5 5 5 4 3 3 4 3 1 359 359 1 1 359 359 359 354 352 355 357 358 358 358 357 356 357 358 357 356 356 354 353 353 354 353 349 346 346 347 349 349 349 349 348 347 346 346 345 344 343 343 342 342 342 341 340
119 118 119 98 93 113 109 93 86 89 100 109 110 100 85 84 75 51 36 30 26 21 20 22 20 15 10 8 6 3 3 4 3 3 2 2 3 1 1 2 360 358 359 0 0 358 358 358 353 352 356 358 356 357 358 357 357 358 357 357 356 355 355 356 355 355 354 350 347 346 345 346 349 350 349 348 347 347 347 346 345 344 344 344 344 343 342 342
116 118 118 93 93 111 103 88 83 90 100 99 93 92 80 71 67 45 28 25 22 16 17 17 13 11 9 5 3 1 2 1 0 1 360 360 1 359 359 360 359 358 359 359 358 356 357 358 355 352 354 355 355 359 359 358 359 359 357 357 356 355 357 358 353 352 352 349 348 347 345 347 350 350 348 348 348 348 347 347 346 345 345 346 345 343 344 344
116 121 117 94 99 110 98 88 78 72 87 98 87 78 65 59 53 33 19 16 12 9 10 8 5 5 2 0 1 0 360 358 356 358 358 356 357 358 358 358 358 357 359 359 358 357 357 358 354 351 353 356 357 359 359 358 359 358 357 356 356 355 356 355 353 352 351 350 350 349 347 349 351 349 347 348 348 348 348 348 347 347 347 347 346 345 346 345
116 116 107 90 102 115 105 106 103 82 86 94 74 54 39 44 41 25 13 7 4 6 7 3 0 1 359 359 0 357 356 357 354 355 357 356 356 357 357 357 357 358 359 359 358 357 357 356 355 354 355 356 357 357 356 356 356 356 356 356 356 356 356 355 355 355 353 351 350 349 347 347 348 348 348 349 349 349 349 349 349 349 349 348 347 346 347 346
117 113 102 81 86 102 107 116 117 108 105 85 65 36 22 32 26 14 12 7 1 2 4 359 357 359 358 357 358 356 355 356 355 354 356 355 354 355 356 355 356 358 358 357 357 357 357 357 358 359 356 353 352 351 350 351 353 355 356 356 356 357 358 357 356 356 354 351 349 347 343 343 346 348 349 350 350 349 350 350 351 351 350 349 348 348 348 347
121 118 107 77 74 88 94 96 99 100 105 82 50 15 13 22 2 358 6 2 356 358 0 357 354 356 356 356 356 354 352 355 356 355 355 353 351 353 355 355 355 357 357 356 356 358 359 358 358 358 353 348 346 344 346 350 351 351 354 355 355 356 358 358 357 355 352 350 349 347 343 342 345 349 350 350 350 350 350 351 351 352 351 350 349 350 349 348
120 121 117 101 81 81 78 69 73 82 83 65 38 5 359 0 348 351 354 350 350 352 353 352 352 353 353 353 354 351 350 353 354 353 353 351 349 351 353 354 355 355 355 355 355 358 359 356 355 354 350 347 346 343 345 349 349 349 352 355 355 355 358 358 356 354 353 351 349 349 347 344 346 349 350 350 350 351 351 351 352 352 352 351 351 351 350 349
118 126 122 118 111 91 75 63 73 74 52 36 27 6 359 357 347 345 345 345 346 345 345 348 349 349 348 349 352 351 350 352 350 349 351 350 349 352 353 352 353 353 355 355 355 357 358 355 354 354 349 348 347 344 345 349 350 352 355 356 356 356 356 356 354 353 353 351 346 346 347 346 347 350 351 350 350 350 351 351 352 352 352 352 353 353 351 351
116 118 106 95 105 113 98 79 84 70 39 21 16 360 354 353 337 332 339 344 342 339 341 342 340 341 342 344 351 349 346 349 348 345 348 349 348 351 353 352 352 353 355 355 354 356 356 353 354 354 350 349 348 346 349 352 351 354 357 357 357 355 353 353 353 352 351 348 344 345 346 347 349 351 350 350 350 350 350 352 353 352 353 354 354 353 352 352
128 127 116 95 89 82 68 46 53 44 16 6 4 351 345 342 331 331 336 340 336 333 337 338 335 337 340 342 347 344 339 344 345 342 346 349 348 349 352 351 352 353 354 355 353 353 354 352 354 355 352 351 352 350 352 353 351 354 358 357 356 355 354 354 354 353 351 348 347 348 347 348 351 352 350 349 350 351 352 353 353 353 354 355 355 354 353 353
130 134 131 111 80 15 358 350 355 12 358 349 349 342 335 329 326 335 337 333 332 330 330 334 336 339 342 340 338 337 336 341 343 341 344 348 347 349 351 351 353 353 353 354 352 352 354 352 353 356 353 351 354 354 352 354 357 358 358 356 356 356 355 355 354 352 351 350 350 351 351 351 352 351 350 351 351 352 353 353 353 354 356 356 355 354 354 353
123 123 128 107 54 333 328 335 338 346 334 331 340 339 333 329 327 334 336 331 331 333 330 330 335 339 339 337 335 335 337 340 341 341 344 347 348 351 351 351 354 353 352 354 352 352 354 353 353 355 352 350 355 353 350 356 2 359 356 356 356 356 355 354 353 352 353 354 354 353 353 352 351 351 351 352 352 353 354 354 353 355 357 356 355 355 354 354